QPF
0.00 0.00 0.00 0.00 0.00 0.00 0.02 0.08 0.15 0.12 0.08 0.11 0.16 0.16 0.13 0.06 0.01 0.00 0.00 0.00 0.00 0.00 0.00 0.00 0.00 0.00 0.00 0.01 0.02 0.02 0.02 0.02 0.04 0.03 0.00 0.00 0.00 0.00 0.00 0.00 0.00 0.00 0.00 0.00
0.00 0.00 0.00 0.00 0.00 0.00 0.01 0.03 0.07 0.09 0.12 0.15 0.14 0.10 0.07 0.03 0.01 0.00 0.01 0.01 0.00 0.00 0.00 0.00 0.00 0.00 0.01 0.02 0.03 0.04 0.04 0.03 0.06 0.08 0.04 0.01 0.00 0.00 0.00 0.00 0.00 0.00 0.00 0.00
0.00 0.00 0.00 0.01 0.00 0.00 0.01 0.01 0.03 0.10 0.16 0.15 0.13 0.09 0.04 0.03 0.01 0.00 0.00 0.01 0.01 0.01 0.00 0.00 0.00 0.01 0.02 0.02 0.01 0.02 0.04 0.05 0.06 0.08 0.11 0.07 0.02 0.01 0.01 0.02 0.03 0.02 0.01 0.00
0.00 0.00 0.03 0.01 0.00 0.00 0.02 0.01 0.01 0.04 0.06 0.06 0.05 0.02 0.01 0.01 0.00 0.00 0.00 0.00 0.00 0.00 0.00 0.00 0.00 0.02 0.04 0.02 0.01 0.01 0.02 0.02 0.01 0.02 0.05 0.06 0.05 0.03 0.03 0.06 0.09 0.09 0.04 0.02
0.00 0.00 0.01 0.00 0.00 0.00 0.02 0.01 0.01 0.01 0.01 0.00 0.01 0.01 0.02 0.01 0.00 0.00 0.00 0.00 0.00 0.01 0.00 0.00 0.01 0.03 0.07 0.05 0.05 0.04 0.05 0.05 0.03 0.02 0.02 0.01 0.02 0.01 0.01 0.03 0.07 0.10 0.06 0.03
0.00 0.00 0.01 0.00 0.00 0.00 0.00 0.01 0.00 0.00 0.00 0.00 0.01 0.04 0.07 0.03 0.00 0.00 0.00 0.00 0.01 0.01 0.01 0.02 0.04 0.06 0.08 0.10 0.10 0.09 0.09 0.08 0.05 0.04 0.04 0.03 0.03 0.02 0.01 0.00 0.01 0.02 0.03 0.05
0.00 0.00 0.00 0.00 0.00 0.00 0.01 0.04 0.01 0.00 0.00 0.00 0.00 0.02 0.03 0.02 0.01 0.00 0.01 0.01 0.01 0.02 0.01 0.03 0.04 0.05 0.09 0.10 0.09 0.07 0.03 0.03 0.03 0.04 0.05 0.08 0.08 0.04 0.03 0.02 0.01 0.01 0.02 0.03
0.00 0.00 0.00 0.00 0.00 0.00 0.01 0.00 0.00 0.00 0.00 0.00 0.00 0.00 0.00 0.00 0.00 0.00 0.00 0.01 0.01 0.02 0.01 0.02 0.02 0.02 0.04 0.05 0.05 0.04 0.02 0.02 0.03 0.03 0.04 0.10 0.18 0.17 0.15 0.11 0.04 0.01 0.01 0.02
0.00 0.00 0.00 0.00 0.00 0.00 0.00 0.00 0.00 0.00 0.00 0.00 0.00 0.00 0.00 0.00 0.00 0.00 0.00 0.00 0.01 0.03 0.04 0.04 0.03 0.05 0.07 0.04 0.01 0.01 0.01 0.02 0.02 0.01 0.02 0.05 0.10 0.14 0.15 0.11 0.04 0.01 0.01 0.02
0.00 0.00 0.00 0.00 0.00 0.00 0.00 0.00 0.00 0.00 0.00 0.00 0.00 0.00 0.00 0.00 0.00 0.00 0.00 0.01 0.02 0.04 0.07 0.10 0.09 0.07 0.08 0.03 0.01 0.01 0.01 0.02 0.02 0.01 0.00 0.00 0.01 0.03 0.05 0.04 0.02 0.01 0.01 0.01
0.00 0.00 0.00 0.00 0.00 0.00 0.00 0.00 0.00 0.00 0.00 0.00 0.00 0.00 0.00 0.00 0.00 0.00 0.00 0.01 0.02 0.03 0.06 0.08 0.10 0.10 0.08 0.05 0.05 0.04 0.03 0.02 0.01 0.01 0.01 0.01 0.01 0.02 0.03 0.03 0.02 0.01 0.01 0.02
0.00 0.00 0.00 0.00 0.00 0.00 0.00 0.00 0.00 0.00 0.00 0.00 0.00 0.00 0.00 0.00 0.00 0.00 0.00 0.00 0.01 0.02 0.04 0.06 0.05 0.04 0.04 0.06 0.07 0.07 0.08 0.06 0.05 0.04 0.05 0.07 0.04 0.01 0.01 0.01 0.01 0.01 0.01 0.01
0.00 0.00 0.00 0.00 0.00 0.00 0.00 0.00 0.00 0.00 0.00 0.00 0.00 0.00 0.00 0.00 0.00 0.00 0.00 0.00 0.00 0.00 0.01 0.03 0.03 0.03 0.02 0.01 0.02 0.03 0.06 0.07 0.05 0.04 0.04 0.04 0.04 0.02 0.01 0.00 0.00 0.00 0.00 0.00
0.00 0.00 0.00 0.00 0.00 0.00 0.00 0.00 0.00 0.00 0.00 0.00 0.00 0.00 0.00 0.00 0.00 0.00 0.00 0.00 0.00 0.00 0.00 0.00 0.00 0.00 0.00 0.00 0.00 0.01 0.01 0.01 0.01 0.01 0.01 0.01 0.01 0.01 0.00 0.00 0.00 0.00 0.00 0.00
0.00 0.00 0.00 0.00 0.00 0.00 0.00 0.00 0.00 0.00 0.00 0.00 0.00 0.00 0.00 0.00 0.00 0.00 0.00 0.00 0.00 0.00 0.00 0.00 0.00 0.00 0.00 0.00 0.00 0.00 0.00 0.00 0.00 0.00 0.00 0.00 0.00 0.00 0.00 0.00 0.00 0.00 0.00 0.00
0.00 0.00 0.00 0.00 0.00 0.00 0.00 0.00 0.00 0.00 0.00 0.00 0.00 0.00 0.00 0.00 0.00 0.00 0.00 0.00 0.00 0.00 0.00 0.00 0.00 0.00 0.00 0.00 0.00 0.00 0.00 0.00 0.00 0.00 0.00 0.00 0.00 0.00 0.00 0.00 0.00 0.00 0.00 0.00
0.00 0.00 0.00 0.00 0.00 0.00 0.00 0.00 0.00 0.00 0.00 0.00 0.00 0.00 0.00 0.00 0.00 0.00 0.00 0.00 0.00 0.00 0.00 0.00 0.00 0.00 0.00 0.00 0.00 0.00 0.00 0.00 0.00 0.00 0.00 0.00 0.00 0.00 0.00 0.00 0.00 0.00 0.00 0.00
0.00 0.00 0.00 0.00 0.00 0.00 0.00 0.00 0.00 0.00 0.00 0.00 0.00 0.00 0.00 0.00 0.00 0.00 0.00 0.00 0.00 0.00 0.00 0.00 0.00 0.00 0.00 0.00 0.00 0.00 0.00 0.00 0.00 0.00 0.00 0.00 0.00 0.00 0.00 0.00 0.00 0.00 0.00 0.00
0.00 0.00 0.00 0.00 0.00 0.00 0.00 0.00 0.00 0.00 0.00 0.00 0.00 0.00 0.00 0.00 0.00 0.00 0.00 0.00 0.00 0.00 0.00 0.00 0.00 0.00 0.00 0.00 0.00 0.00 0.00 0.00 0.00 0.00 0.00 0.00 0.00 0.00 0.00 0.00 0.00 0.00 0.00 0.00
0.00 0.00 0.00 0.00 0.00 0.00 0.00 0.00 0.00 0.00 0.00 0.00 0.00 0.00 0.00 0.00 0.00 0.00 0.00 0.00 0.00 0.00 0.00 0.00 0.00 0.00 0.00 0.00 0.00 0.00 0.00 0.00 0.00 0.00 0.00 0.00 0.00 0.00 0.00 0.00 0.00 0.00 0.00 0.00
0.00 0.00 0.00 0.00 0.00 0.00 0.00 0.00 0.00 0.00 0.00 0.00 0.00 0.00 0.00 0.00 0.00 0.00 0.00 0.00 0.00 0.00 0.00 0.00 0.00 0.00 0.00 0.00 0.00 0.00 0.00 0.00 0.00 0.00 0.00 0.00 0.00 0.00 0.00 0.00 0.00 0.00 0.00 0.00
0.00 0.00 0.00 0.00 0.00 0.00 0.00 0.00 0.00 0.00 0.00 0.00 0.00 0.00 0.00 0.00 0.00 0.00 0.00 0.00 0.00 0.00 0.00 0.00 0.00 0.00 0.00 0.00 0.00 0.00 0.00 0.00 0.00 0.00 0.00 0.00 0.00 0.00 0.00 0.00 0.00 0.00 0.00 0.00
0.00 0.00 0.01 0.01 0.00 0.00 0.00 0.00 0.00 0.00 0.00 0.00 0.00 0.00 0.00 0.00 0.00 0.00 0.00 0.00 0.00 0.00 0.00 0.00 0.00 0.00 0.00 0.00 0.00 0.00 0.00 0.00 0.00 0.00 0.00 0.00 0.00 0.00 0.00 0.00 0.00 0.00 0.00 0.00
0.00 0.00 0.01 0.01 0.01 0.01 0.01 0.00 0.00 0.00 0.00 0.00 0.00 0.00 0.00 0.00 0.00 0.00 0.00 0.00 0.00 0.00 0.00 0.00 0.00 0.00 0.00 0.00 0.00 0.00 0.00 0.00 0.00 0.00 0.00 0.00 0.00 0.00 0.00 0.00 0.00 0.00 0.00 0.00
0.00 0.00 0.00 0.01 0.02 0.03 0.03 0.02 0.01 0.00 0.00 0.00 0.00 0.00 0.00 0.00 0.00 0.00 0.00 0.00 0.00 0.00 0.00 0.00 0.00 0.00 0.00 0.00 0.00 0.00 0.00 0.00 0.00 0.00 0.00 0.00 0.00 0.00 0.00 0.00 0.00 0.00 0.00 0.00
0.00 0.01 0.01 0.03 0.04 0.05 0.03 0.03 0.02 0.01 0.01 0.01 0.00 0.00 0.00 0.00 0.00 0.00 0.00 0.00 0.00 0.00 0.00 0.00 0.00 0.00 0.00 0.00 0.00 0.00 0.00 0.00 0.00 0.00 0.00 0.00 0.00 0.00 0.00 0.00 0.00 0.00 0.00 0.00
0.02 0.03 0.05 0.06 0.07 0.07 0.06 0.06 0.05 0.03 0.03 0.03 0.02 0.01 0.00 0.00 0.00 0.00 0.00 0.00 0.00 0.00 0.00 0.00 0.00 0.00 0.00 0.00 0.00 0.00 0.00 0.00 0.00 0.00 0.00 0.00 0.00 0.00 0.00 0.00 0.00 0.00 0.00 0.00
MSLP
1012.15 1012.33 1012.54 1012.76 1013.00 1013.22 1013.40 1013.49 1013.48 1013.36 1013.13 1012.83 1012.49 1012.16 1011.90 1011.74 1011.71 1011.79 1011.98 1012.23 1012.52 1012.79 1013.01 1013.17 1013.25 1013.25 1013.21 1013.12 1013.02 1012.92 1012.84 1012.77 1012.72 1012.68 1012.65 1012.63 1012.62 1012.61 1012.59 1012.58 1012.56 1012.54 1012.50 1012.45
1012.22 1012.30 1012.37 1012.43 1012.50 1012.57 1012.63 1012.67 1012.66 1012.61 1012.51 1012.38 1012.22 1012.09 1011.99 1011.95 1011.99 1012.11 1012.28 1012.50 1012.74 1012.96 1013.15 1013.29 1013.36 1013.38 1013.35 1013.29 1013.20 1013.11 1013.02 1012.95 1012.89 1012.85 1012.83 1012.84 1012.85 1012.88 1012.91 1012.93 1012.95 1012.95 1012.93 1012.88
1012.13 1012.13 1012.09 1012.03 1011.97 1011.92 1011.88 1011.86 1011.86 1011.86 1011.87 1011.88 1011.89 1011.92 1011.97 1012.06 1012.18 1012.33 1012.52 1012.71 1012.91 1013.10 1013.26 1013.38 1013.45 1013.47 1013.46 1013.41 1013.34 1013.26 1013.18 1013.11 1013.06 1013.03 1013.04 1013.07 1013.12 1013.20 1013.27 1013.35 1013.40 1013.43 1013.42 1013.38
1011.87 1011.82 1011.71 1011.57 1011.41 1011.27 1011.17 1011.11 1011.11 1011.15 1011.24 1011.35 1011.50 1011.66 1011.84 1012.03 1012.22 1012.42 1012.62 1012.81 1012.99 1013.15 1013.28 1013.39 1013.47 1013.50 1013.51 1013.48 1013.44 1013.38 1013.31 1013.26 1013.23 1013.23 1013.26 1013.33 1013.43 1013.55 1013.68 1013.79 1013.89 1013.95 1013.96 1013.92
1011.47 1011.38 1011.23 1011.03 1010.82 1010.64 1010.49 1010.41 1010.41 1010.48 1010.62 1010.82 1011.06 1011.32 1011.59 1011.86 1012.11 1012.34 1012.56 1012.75 1012.92 1013.08 1013.21 1013.32 1013.41 1013.47 1013.51 1013.52 1013.51 1013.48 1013.45 1013.43 1013.42 1013.45 1013.51 1013.61 1013.75 1013.92 1014.09 1014.25 1014.39 1014.48 1014.51 1014.49
1010.96 1010.83 1010.65 1010.43 1010.20 1009.99 1009.84 1009.75 1009.75 1009.85 1010.03 1010.28 1010.58 1010.91 1011.24 1011.56 1011.86 1012.12 1012.35 1012.56 1012.74 1012.90 1013.04 1013.18 1013.30 1013.40 1013.49 1013.55 1013.59 1013.61 1013.62 1013.63 1013.66 1013.71 1013.79 1013.92 1014.09 1014.29 1014.50 1014.70 1014.87 1014.99 1015.05 1015.05
1010.38 1010.22 1010.01 1009.78 1009.55 1009.34 1009.18 1009.11 1009.13 1009.24 1009.45 1009.73 1010.08 1010.45 1010.82 1011.18 1011.50 1011.79 1012.05 1012.27 1012.46 1012.65 1012.82 1012.99 1013.16 1013.32 1013.46 1013.59 1013.69 1013.77 1013.83 1013.88 1013.94 1014.01 1014.11 1014.26 1014.44 1014.65 1014.88 1015.11 1015.31 1015.47 1015.56 1015.58
1009.78 1009.57 1009.34 1009.10 1008.86 1008.67 1008.53 1008.48 1008.52 1008.66 1008.89 1009.21 1009.58 1009.98 1010.38 1010.76 1011.12 1011.43 1011.70 1011.94 1012.16 1012.37 1012.58 1012.80 1013.02 1013.24 1013.45 1013.65 1013.82 1013.96 1014.07 1014.16 1014.25 1014.34 1014.45 1014.59 1014.77 1014.98 1015.21 1015.45 1015.68 1015.87 1016.00 1016.06
1009.16 1008.90 1008.64 1008.39 1008.16 1007.99 1007.88 1007.86 1007.93 1008.10 1008.37 1008.71 1009.11 1009.54 1009.97 1010.38 1010.75 1011.09 1011.38 1011.64 1011.88 1012.12 1012.36 1012.62 1012.89 1013.18 1013.45 1013.72 1013.95 1014.15 1014.31 1014.44 1014.55 1014.65 1014.75 1014.88 1015.04 1015.24 1015.47 1015.71 1015.95 1016.16 1016.33 1016.44
1008.50 1008.19 1007.91 1007.66 1007.45 1007.30 1007.23 1007.25 1007.36 1007.58 1007.88 1008.27 1008.70 1009.16 1009.62 1010.06 1010.46 1010.82 1011.13 1011.41 1011.67 1011.92 1012.19 1012.48 1012.79 1013.11 1013.44 1013.75 1014.04 1014.29 1014.49 1014.65 1014.77 1014.87 1014.97 1015.08 1015.22 1015.39 1015.60 1015.84 1016.09 1016.32 1016.53 1016.69
1007.77 1007.43 1007.14 1006.90 1006.72 1006.61 1006.58 1006.64 1006.81 1007.07 1007.42 1007.85 1008.34 1008.84 1009.34 1009.82 1010.25 1010.63 1010.97 1011.26 1011.53 1011.79 1012.07 1012.36 1012.68 1013.02 1013.38 1013.72 1014.04 1014.32 1014.55 1014.73 1014.86 1014.96 1015.04 1015.13 1015.25 1015.39 1015.58 1015.81 1016.06 1016.32 1016.56 1016.76
1006.92 1006.59 1006.32 1006.11 1005.96 1005.89 1005.91 1006.03 1006.24 1006.56 1006.97 1007.45 1007.99 1008.55 1009.10 1009.62 1010.09 1010.51 1010.86 1011.17 1011.44 1011.70 1011.96 1012.24 1012.55 1012.88 1013.23 1013.58 1013.90 1014.19 1014.43 1014.62 1014.76 1014.85 1014.93 1015.00 1015.09 1015.22 1015.39 1015.61 1015.86 1016.13 1016.40 1016.63
1005.95 1005.67 1005.44 1005.27 1005.18 1005.16 1005.22 1005.39 1005.65 1006.02 1006.47 1007.01 1007.60 1008.21 1008.82 1009.39 1009.91 1010.37 1010.75 1011.07 1011.35 1011.60 1011.84 1012.09 1012.37 1012.67 1012.98 1013.31 1013.62 1013.89 1014.13 1014.32 1014.46 1014.55 1014.62 1014.69 1014.77 1014.88 1015.04 1015.25 1015.50 1015.78 1016.07 1016.34
1004.90 1004.68 1004.52 1004.42 1004.38 1004.41 1004.52 1004.72 1005.01 1005.41 1005.90 1006.48 1007.11 1007.77 1008.43 1009.06 1009.64 1010.14 1010.56 1010.90 1011.19 1011.43 1011.65 1011.87 1012.11 1012.36 1012.63 1012.91 1013.19 1013.45 1013.67 1013.85 1013.98 1014.08 1014.15 1014.22 1014.30 1014.41 1014.57 1014.78 1015.03 1015.31 1015.61 1015.90
1003.84 1003.71 1003.64 1003.60 1003.61 1003.68 1003.81 1004.02 1004.33 1004.73 1005.23 1005.82 1006.48 1007.17 1007.88 1008.56 1009.18 1009.74 1010.21 1010.59 1010.90 1011.15 1011.36 1011.56 1011.75 1011.96 1012.19 1012.42 1012.66 1012.89 1013.09 1013.26 1013.40 1013.50 1013.58 1013.66 1013.75 1013.87 1014.03 1014.24 1014.49 1014.78 1015.08 1015.37
1002.88 1002.86 1002.86 1002.89 1002.94 1003.02 1003.15 1003.34 1003.62 1003.99 1004.46 1005.03 1005.68 1006.39 1007.12 1007.83 1008.51 1009.12 1009.65 1010.08 1010.43 1010.70 1010.93 1011.12 1011.30 1011.48 1011.67 1011.86 1012.07 1012.27 1012.45 1012.62 1012.76 1012.87 1012.97 1013.07 1013.18 1013.31 1013.48 1013.69 1013.94 1014.23 1014.52 1014.81
1002.15 1002.21 1002.28 1002.35 1002.42 1002.48 1002.57 1002.71 1002.92 1003.22 1003.62 1004.13 1004.74 1005.42 1006.15 1006.89 1007.60 1008.26 1008.85 1009.34 1009.75 1010.08 1010.34 1010.55 1010.74 1010.91 1011.09 1011.27 1011.45 1011.64 1011.82 1011.98 1012.13 1012.26 1012.38 1012.50 1012.63 1012.78 1012.96 1013.17 1013.42 1013.70 1013.98 1014.27
1001.72 1001.84 1001.96 1002.04 1002.08 1002.10 1002.12 1002.17 1002.27 1002.46 1002.75 1003.16 1003.69 1004.32 1005.01 1005.74 1006.48 1007.18 1007.82 1008.39 1008.87 1009.26 1009.59 1009.85 1010.07 1010.27 1010.46 1010.65 1010.83 1011.02 1011.20 1011.37 1011.54 1011.69 1011.83 1011.97 1012.12 1012.28 1012.47 1012.69 1012.93 1013.19 1013.47 1013.73
1001.60 1001.76 1001.89 1001.95 1001.95 1001.89 1001.81 1001.74 1001.70 1001.75 1001.91 1002.19 1002.60 1003.14 1003.77 1004.47 1005.20 1005.92 1006.61 1007.24 1007.80 1008.27 1008.67 1009.00 1009.29 1009.54 1009.77 1009.98 1010.19 1010.40 1010.60 1010.79 1010.97 1011.14 1011.31 1011.47 1011.64 1011.82 1012.01 1012.22 1012.46 1012.70 1012.96 1013.21
1001.73 1001.90 1002.00 1002.02 1001.95 1001.80 1001.61 1001.40 1001.22 1001.12 1001.12 1001.26 1001.54 1001.96 1002.50 1003.14 1003.84 1004.57 1005.28 1005.96 1006.58 1007.13 1007.61 1008.02 1008.38 1008.70 1008.99 1009.25 1009.50 1009.74 1009.97 1010.19 1010.39 1010.59 1010.78 1010.96 1011.14 1011.33 1011.52 1011.73 1011.96 1012.19 1012.43 1012.67
1001.98 1002.13 1002.19 1002.15 1002.00 1001.76 1001.45 1001.11 1000.80 1000.55 1000.40 1000.39 1000.54 1000.84 1001.29 1001.85 1002.50 1003.19 1003.91 1004.61 1005.27 1005.88 1006.43 1006.92 1007.36 1007.74 1008.09 1008.42 1008.72 1009.00 1009.26 1009.52 1009.75 1009.97 1010.18 1010.38 1010.58 1010.77 1010.97 1011.18 1011.40 1011.62 1011.85 1012.08
1002.20 1002.30 1002.32 1002.21 1001.99 1001.66 1001.26 1000.82 1000.39 1000.02 999.75 999.62 999.65 999.83 1000.17 1000.65 1001.23 1001.88 1002.56 1003.26 1003.94 1004.58 1005.18 1005.72 1006.21 1006.66 1007.07 1007.45 1007.80 1008.13 1008.44 1008.73 1009.00 1009.25 1009.48 1009.70 1009.91 1010.12 1010.33 1010.54 1010.76 1010.99 1011.22 1011.45
1002.26 1002.32 1002.27 1002.10 1001.82 1001.42 1000.95 1000.44 999.94 999.50 999.15 998.93 998.86 998.96 999.21 999.59 1000.09 1000.68 1001.32 1001.98 1002.64 1003.28 1003.89 1004.46 1004.99 1005.48 1005.94 1006.36 1006.76 1007.13 1007.48 1007.81 1008.11 1008.40 1008.66 1008.91 1009.14 1009.37 1009.60 1009.83 1010.06 1010.30 1010.55 1010.80
1002.10 1002.09 1001.98 1001.76 1001.42 1000.99 1000.49 999.96 999.44 998.96 998.58 998.32 998.20 998.23 998.41 998.72 999.14 999.65 1000.22 1000.83 1001.44 1002.05 1002.64 1003.21 1003.74 1004.25 1004.73 1005.18 1005.61 1006.02 1006.41 1006.77 1007.11 1007.43 1007.74 1008.02 1008.29 1008.56 1008.81 1009.08 1009.34 1009.61 1009.90 1010.19
1001.71 1001.62 1001.45 1001.18 1000.82 1000.37 999.88 999.36 998.85 998.40 998.03 997.77 997.64 997.65 997.78 998.04 998.39 998.83 999.32 999.85 1000.40 1000.95 1001.49 1002.02 1002.53 1003.03 1003.51 1003.97 1004.42 1004.85 1005.27 1005.67 1006.06 1006.42 1006.77 1007.10 1007.42 1007.73 1008.04 1008.35 1008.66 1008.99 1009.32 1009.66
1001.14 1000.97 1000.73 1000.42 1000.04 999.60 999.14 998.67 998.22 997.83 997.52 997.30 997.20 997.22 997.34 997.56 997.86 998.23 998.65 999.10 999.56 1000.03 1000.51 1000.97 1001.44 1001.90 1002.36 1002.82 1003.27 1003.72 1004.17 1004.60 1005.03 1005.44 1005.84 1006.23 1006.60 1006.97 1007.34 1007.71 1008.09 1008.48 1008.88 1009.28
1000.48 1000.22 999.92 999.57 999.18 998.76 998.34 997.94 997.58 997.27 997.05 996.91 996.87 996.92 997.05 997.26 997.54 997.85 998.20 998.57 998.95 999.34 999.74 1000.13 1000.54 1000.95 1001.38 1001.81 1002.26 1002.72 1003.18 1003.65 1004.11 1004.57 1005.03 1005.48 1005.92 1006.36 1006.80 1007.24 1007.69 1008.14 1008.61 1009.08
Thickness
5686 5689 5687 5678 5670 5664 5649 5637 5619 5618 5620 5630 5634 5633 5629 5627 5632 5636 5637 5638 5638 5638 5636 5634 5633 5633 5636 5639 5643 5646 5648 5648 5648 5649 5649 5649 5649 5649 5649 5650 5651 5650 5650 5650
5676 5682 5680 5669 5663 5654 5645 5639 5628 5620 5618 5627 5629 5630 5627 5624 5624 5626 5626 5626 5627 5628 5628 5626 5625 5625 5627 5630 5634 5637 5639 5639 5639 5639 5640 5639 5640 5640 5639 5639 5639 5638 5637 5636
5664 5674 5667 5651 5656 5648 5640 5638 5628 5615 5612 5616 5613 5614 5616 5617 5619 5620 5621 5621 5620 5619 5619 5617 5617 5618 5620 5623 5626 5628 5630 5630 5630 5629 5628 5628 5630 5628 5626 5625 5624 5623 5623 5622
5661 5660 5637 5656 5665 5655 5641 5637 5634 5626 5621 5617 5614 5615 5616 5617 5616 5614 5614 5615 5615 5614 5613 5612 5611 5612 5614 5617 5619 5620 5620 5619 5619 5619 5617 5616 5615 5613 5612 5611 5610 5608 5608 5609
5655 5651 5655 5665 5667 5655 5639 5633 5640 5632 5627 5624 5620 5616 5615 5616 5615 5612 5611 5611 5610 5610 5609 5608 5607 5608 5609 5610 5611 5611 5610 5609 5608 5608 5606 5605 5602 5600 5599 5598 5597 5596 5596 5596
5653 5644 5640 5663 5671 5664 5645 5632 5640 5636 5629 5627 5623 5611 5612 5620 5615 5613 5611 5608 5606 5606 5605 5603 5602 5602 5601 5602 5602 5601 5600 5599 5599 5598 5596 5594 5591 5589 5588 5587 5585 5585 5584 5583
5655 5654 5662 5677 5673 5661 5633 5631 5639 5639 5636 5633 5627 5621 5618 5618 5614 5611 5607 5604 5603 5602 5600 5598 5597 5596 5595 5594 5592 5592 5592 5592 5591 5589 5588 5587 5584 5581 5578 5576 5574 5574 5572 5571
5661 5652 5655 5672 5668 5654 5648 5649 5645 5642 5641 5639 5634 5627 5623 5619 5613 5609 5605 5602 5600 5597 5595 5592 5590 5588 5586 5584 5584 5585 5584 5584 5582 5581 5581 5580 5577 5574 5570 5568 5566 5565 5563 5561
5664 5662 5669 5675 5670 5667 5662 5653 5649 5646 5645 5642 5634 5628 5624 5618 5613 5609 5606 5603 5600 5595 5590 5587 5584 5582 5579 5577 5577 5577 5576 5575 5574 5573 5572 5572 5570 5567 5564 5562 5560 5559 5556 5554
5661 5667 5671 5674 5674 5671 5666 5659 5655 5652 5648 5644 5636 5631 5626 5620 5614 5609 5605 5602 5598 5594 5589 5584 5581 5578 5575 5574 5573 5572 5570 5568 5566 5565 5564 5563 5563 5562 5559 5556 5554 5551 5548 5546
5655 5664 5667 5669 5671 5673 5669 5664 5657 5654 5652 5646 5640 5634 5628 5620 5615 5610 5605 5601 5597 5593 5589 5585 5581 5577 5574 5572 5571 5569 5567 5563 5561 5559 5558 5556 5554 5552 5550 5547 5544 5542 5539 5537
5648 5661 5660 5664 5671 5674 5668 5662 5656 5651 5648 5645 5640 5634 5629 5623 5617 5611 5605 5601 5596 5593 5590 5586 5582 5577 5574 5570 5568 5565 5562 5561 5560 5558 5555 5552 5549 5546 5540 5539 5535 5533 5531 5530
5659 5663 5664 5668 5670 5671 5669 5664 5657 5650 5645 5642 5638 5634 5629 5623 5617 5611 5606 5601 5597 5594 5590 5585 5581 5577 5575 5572 5568 5564 5561 5560 5559 5557 5554 5551 5549 5546 5541 5534 5530 5528 5526 5523
5663 5659 5655 5660 5663 5666 5666 5665 5659 5652 5646 5641 5636 5632 5627 5621 5615 5610 5605 5601 5598 5595 5590 5585 5581 5577 5575 5572 5569 5566 5564 5560 5560 5558 5556 5554 5552 5550 5547 5541 5534 5530 5523 5517
5664 5663 5661 5664 5665 5663 5661 5659 5653 5648 5643 5638 5634 5628 5623 5617 5612 5607 5605 5601 5596 5592 5588 5585 5581 5578 5575 5573 5568 5566 5565 5564 5562 5561 5559 5558 5555 5552 5550 5544 5539 5533 5526 5515
5664 5663 5663 5662 5661 5660 5657 5653 5648 5645 5641 5636 5631 5626 5621 5616 5610 5606 5602 5599 5594 5589 5586 5582 5579 5576 5574 5571 5568 5565 5563 5558 5558 5558 5558 5554 5551 5550 5546 5540 5535 5530 5525 5516
5656 5653 5654 5654 5655 5655 5654 5653 5651 5646 5641 5636 5629 5624 5619 5614 5609 5604 5600 5597 5593 5589 5586 5582 5578 5576 5573 5569 5566 5565 5565 5560 5553 5553 5554 5553 5550 5546 5542 5536 5531 5527 5522 5513
5663 5658 5655 5652 5650 5649 5650 5651 5652 5648 5643 5639 5632 5624 5617 5611 5605 5602 5599 5595 5592 5588 5585 5583 5579 5575 5571 5568 5564 5563 5564 5561 5554 5551 5551 5550 5547 5543 5538 5533 5529 5524 5518 5509
5659 5654 5651 5649 5648 5646 5645 5645 5647 5648 5645 5641 5634 5626 5619 5613 5607 5602 5598 5593 5590 5585 5583 5582 5578 5574 5570 5567 5564 5559 5558 5559 5556 5552 5549 5546 5542 5539 5535 5531 5527 5523 5517 5512
5647 5644 5642 5641 5641 5639 5639 5640 5642 5643 5643 5641 5634 5627 5621 5615 5609 5602 5596 5592 5591 5590 5587 5583 5579 5574 5571 5568 5563 5561 5558 5556 5555 5553 5548 5545 5541 5537 5534 5531 5527 5521 5514 5508
5635 5632 5630 5628 5628 5629 5630 5631 5633 5635 5639 5640 5635 5628 5623 5617 5612 5604 5596 5591 5591 5591 5588 5584 5580 5577 5573 5569 5563 5561 5559 5556 5554 5551 5549 5546 5543 5539 5535 5531 5525 5519 5511 5504
5618 5617 5617 5617 5617 5617 5619 5622 5624 5628 5631 5636 5636 5631 5624 5618 5613 5607 5601 5595 5594 5590 5588 5587 5584 5580 5576 5570 5566 5563 5559 5557 5555 5553 5550 5547 5543 5539 5535 5530 5524 5516 5509 5502
5606 5604 5603 5603 5604 5605 5609 5612 5615 5619 5623 5627 5631 5630 5625 5620 5616 5608 5601 5599 5594 5590 5588 5588 5586 5582 5576 5571 5569 5565 5561 5558 5555 5553 5550 5547 5544 5540 5535 5529 5521 5513 5506 5501
5593 5593 5592 5593 5593 5594 5596 5601 5605 5610 5615 5619 5625 5627 5625 5620 5616 5614 5609 5602 5596 5592 5589 5588 5585 5579 5574 5573 5570 5567 5564 5561 5557 5554 5551 5548 5544 5540 5533 5525 5517 5510 5505 5500
5580 5580 5582 5582 5583 5585 5588 5591 5594 5598 5603 5610 5616 5621 5623 5622 5618 5614 5609 5604 5598 5593 5591 5588 5582 5578 5576 5575 5572 5569 5567 5564 5560 5556 5552 5548 5542 5536 5528 5520 5513 5508 5503 5497
5569 5571 5573 5574 5575 5575 5578 5580 5583 5586 5589 5594 5603 5611 5615 5617 5616 5613 5607 5604 5600 5594 5592 5590 5584 5578 5578 5576 5573 5571 5569 5565 5561 5556 5552 5547 5541 5533 5525 5518 5512 5507 5502 5495
5559 5561 5562 5563 5564 5566 5569 5572 5574 5577 5580 5580 5582 5590 5599 5604 5607 5606 5604 5601 5599 5596 5593 5590 5587 5581 5578 5576 5574 5572 5569 5566 5562 5558 5552 5545 5538 5530 5523 5516 5511 5506 5499 5491